TimePST,TemperatureF,Dew PointF,Humidity,Sea Level PressureIn,VisibilityMPH,Wind Direction,Wind SpeedMPH,Gust SpeedMPH,PrecipitationIn,Events,Conditions,WindDirDegrees,DateUTC
12:56 AM,41.0,28.0,60,30.05,10.0,Calm,Calm,-,N/A,,Clear,0,2012-11-14 08:56:00
1:56 AM,39.9,30.0,68,30.05,10.0,Calm,Calm,-,N/A,,Clear,0,2012-11-14 09:56:00
2:56 AM,38.8,29.1,68,30.05,10.0,Calm,Calm,-,N/A,,Clear,0,2012-11-14 10:56:00
3:56 AM,34.9,27.1,73,30.06,10.0,Calm,Calm,-,N/A,,Clear,0,2012-11-14 11:56:00
4:56 AM,34.0,27.1,76,30.06,10.0,Calm,Calm,-,N/A,,Clear,0,2012-11-14 12:56:00
5:56 AM,34.9,27.1,73,30.07,10.0,Calm,Calm,-,N/A,,Clear,0,2012-11-14 13:56:00
6:56 AM,37.9,30.0,73,30.08,10.0,Calm,Calm,-,N/A,,Clear,0,2012-11-14 14:56:00
7:56 AM,46.9,32.9,58,30.09,10.0,Variable,3.5,-,N/A,,Clear,0,2012-11-14 15:56:00
8:56 AM,59.0,34.0,39,30.07,10.0,Calm,Calm,-,N/A,,Clear,0,2012-11-14 16:56:00
9:56 AM,66.9,32.9,28,30.08,10.0,Variable,3.5,-,N/A,,Clear,0,2012-11-14 17:56:00
10:56 AM,73.9,30.0,20,30.05,10.0,Calm,Calm,-,N/A,,Clear,0,2012-11-14 18:56:00
11:56 AM,77.9,22.1,13,30.01,10.0,Variable,3.5,-,N/A,,Clear,0,2012-11-14 19:56:00
12:56 PM,79.9,31.1,17,29.99,10.0,West,8.1,-,N/A,,Clear,270,2012-11-14 20:56:00
1:56 PM,75.9,36.9,24,29.98,10.0,West,6.9,-,N/A,,Clear,270,2012-11-14 21:56:00
2:56 PM,74.8,36.9,25,29.98,10.0,West,8.1,-,N/A,,Clear,280,2012-11-14 22:56:00
3:56 PM,72.0,36.0,27,29.99,10.0,West,5.8,-,N/A,,Clear,270,2012-11-14 23:56:00
4:56 PM,66.9,36.0,32,29.99,10.0,West,5.8,-,N/A,,Clear,260,2012-11-15 00:56:00
5:56 PM,59.0,36.0,42,30.01,10.0,Calm,Calm,-,N/A,,Clear,0,2012-11-15 01:56:00
6:56 PM,54.9,36.9,51,30.03,10.0,Calm,Calm,-,N/A,,Clear,0,2012-11-15 02:56:00
7:56 PM,48.9,36.0,61,30.04,10.0,Calm,Calm,-,N/A,,Clear,0,2012-11-15 03:56:00
8:56 PM,46.9,37.9,71,30.06,10.0,Calm,Calm,-,N/A,,Clear,0,2012-11-15 04:56:00
9:56 PM,43.9,34.9,71,30.05,10.0,Calm,Calm,-,N/A,,Clear,0,2012-11-15 05:56:00
10:56 PM,43.0,34.9,73,30.04,10.0,Calm,Calm,-,N/A,,Clear,0,2012-11-15 06:56:00
11:56 PM,41.9,36.9,82,30.04,10.0,East,3.5,-,N/A,,Clear,100,2012-11-15 07:56:00